Regional Weather Roundup
Issued by NWS Little Rock, AR

Home | Current Version | Previous Version | Text Only | Print | Product List | Glossary Off
Versions: 1 2 3 4 5 6 7 8 9 10 11 12 13 14 15 16 17 18 19 20 21 22 23 24 25 26 27 28 29 30 31 32 33 34 35 36 37 38 39 40 41 42 43 44 45 46 47 48

000
ASUS44 KLZK 290105
RWRLZK

WEATHER ROUNDUP FOR ARKANSAS
NATIONAL WEATHER SERVICE LITTLE ROCK AR
800 PM CDT TUE JUL 28 2015

NOTE: "FAIR" INDICATES FEW OR NO CLOUDS BELOW 12,000 FEET WITH NO
SIGNIFICANT WEATHER AND/OR OBSTRUCTIONS TO VISIBILITY.

ARZ001-003-010-029-290200-
NORTHWEST ARKANSAS

CITY           SKY/WX    TMP DP  RH WIND       PRES   REMARKS
FAYETTEVILLE   CLEAR     86  78  77 SE6       29.95F HX  98
FORT SMITH     CLEAR     93  71  48 S6        29.89S HX 100
HARRISON       CLEAR     86  76  71 S5        29.97F HX  96
BENTONVILLE    CLEAR     88  72  58 S5        29.97S HX  94
ROGERS         CLEAR     87  75  67 SE6       29.97S HX  96
SILOAM SPGS    CLEAR     88  72  58 S3        29.94S HX  94
HIGHFILL       CLEAR     87  77  72 S5        29.95F HX  99
SPRINGDALE     CLEAR     88  75  66 S7        29.98S HX  97
$$

ARZ004-005-016-290200-
NORTH CENTRAL ARKANSAS

CITY           SKY/WX    TMP DP  RH WIND       PRES   REMARKS
BATESVILLE     CLEAR     90  79  70 CALM      29.93S HX 105
FLIPPIN        CLEAR     90  75  62 CALM      29.93F HX 100
MTN HOME       CLEAR     86  77  74 S3        29.94F HX  97
$$

ARZ040-041-290200-
WEST CENTRAL ARKANSAS

CITY           SKY/WX    TMP DP  RH WIND       PRES   REMARKS
MENA           CLEAR     91  72  52 CALM      29.97S HX  98
MOUNT IDA      CLEAR     90  70  51 CALM      29.94S HX  95
$$

ARZ009-017-025-026-028-290200-
NORTHEAST ARKANSAS

CITY           SKY/WX    TMP DP  RH WIND       PRES   REMARKS
JONESBORO      CLEAR     89  77  67 SW6       29.92R HX 101
NEWPORT        CLEAR     91  79  68 S3        29.93S HX 107
WALNUT RIDGE   CLEAR     90  75  62 SW6       29.92R HX 100
BLYTHEVILLE    CLEAR     89  79  72 W3        29.93R HX 104
$$

ARZ022-023-033-042-044-290200-
CENTRAL ARKANSAS

CITY           SKY/WX    TMP DP  RH WIND       PRES   REMARKS
LITTLE ROCK    CLEAR     91  74  57 S7        29.92S HX 100
N LITTLE ROCK  CLEAR     92  74  57 SW5       29.92S HX 102
JACKSONVILLE   CLEAR     93  73  52 S5        29.92S HX 102
SEARCY         CLEAR     89  79  72 S3        29.93F HX 104
HOT SPRINGS    CLEAR     93  71  48 SW5       29.94S HX 100
RUSSELLVILLE   CLEAR     91  74  57 VRB3      29.91R HX 100
CLINTON        LGT RAIN  86  82  89 CALM      29.94S HX 105
$$

ARZ036-290200-
EAST ARKANSAS

CITY           SKY/WX    TMP DP  RH WIND       PRES   REMARKS
WEST MEMPHIS   CLEAR     87  80  79 S3        29.92S HX 103
$$

ARZ050-053-066-070-073-290200-
SOUTHWEST ARKANSAS

CITY           SKY/WX    TMP DP  RH WIND       PRES   REMARKS
ARKADELPHIA    FAIR      94  74  52 SW5       29.93S HX 104
CAMDEN         CLEAR     91  75  59 CALM      29.92F HX 102
TEXARKANA      CLEAR     92  71  50 S6        29.93F HX  98
EL DORADO      CLEAR     88  77  69 CALM      29.94S HX 100
DE QUEEN       CLEAR     92  73  53 S3        29.91S HX 100
$$

ARZ056-057-069-290200-
SOUTHEAST ARKANSAS

CITY           SKY/WX    TMP DP  RH WIND       PRES   REMARKS
PINE BLUFF     CLEAR     92  75  57 SW5       29.93S HX 103
STUTTGART      CLEAR     93  75  55 S6        29.93S HX 104
MONTICELLO     CLEAR     91  76  61 CALM      29.93S HX 103

$$





USA.gov is the U.S. government's official web portal to all federal, state and local government web resources and services.